| time (UTC) | temp F | wind direction | speed knots | gust knots | rain 1hr in | rain 24hr in | rain mn in | humidity % | barometer mb |
| 20260507101607 | 67 | 23 | 1.7 | 2.6 | 0.24 | 0.20 | 0.20 | 97 | 1006.4 |
| 20260507101102 | 67 | 30 | 0.0 | 0.0 | 0.31 | 0.18 | 0.18 | 97 | 1006.3 |
| 20260507100600 | 67 | 35 | 0.0 | 0.0 | 0.17 | 0.15 | 0.15 | 97 | 1006.4 |
| 20260507100058 | 67 | 41 | 0.0 | 0.0 | 0.00 | 0.12 | 0.12 | 97 | 1006.0 |
| 20260507095556 | 67 | 41 | 0.0 | 0.0 | 0.00 | 0.12 | 0.12 | 97 | 1006.1 |
| 20260507095052 | 67 | 41 | 0.0 | 0.0 | 0.00 | 0.12 | 0.12 | 97 | 1006.3 |
| 20260507094548 | 67 | 41 | 0.0 | 0.0 | 0.00 | 0.12 | 0.12 | 97 | 1006.3 |
| 20260507094046 | 67 | 40 | 0.0 | 0.0 | 0.00 | 0.12 | 0.12 | 97 | 1006.3 |
| 20260507093543 | 67 | 41 | 0.0 | 0.0 | 0.00 | 0.12 | 0.12 | 97 | 1006.0 |
| 20260507093042 | 66 | 40 | 0.0 | 0.0 | 0.00 | 0.12 | 0.12 | 97 | 1006.2 |
| 20260507092537 | 67 | 40 | 0.0 | 0.0 | 0.00 | 0.12 | 0.12 | 97 | 1006.5 |
| 20260507092034 | 67 | 40 | 0.0 | 0.0 | 0.00 | 0.12 | 0.12 | 97 | 1006.8 |
| 20260507091531 | 67 | 40 | 0.0 | 0.0 | 0.00 | 0.12 | 0.12 | 97 | 1006.7 |
| 20260507091027 | 66 | 30 | 0.0 | 0.0 | 0.00 | 0.12 | 0.12 | 97 | 1006.7 |
| 20260507090523 | 67 | 30 | 0.0 | 0.0 | 0.07 | 0.12 | 0.12 | 97 | 1006.5 |
| 20260507090020 | 67 | 30 | 0.0 | 0.0 | 0.07 | 0.12 | 0.12 | 97 | 1006.5 |
| 20260507085517 | 67 | 28 | 0.0 | 0.9 | 0.00 | 0.11 | 0.11 | 97 | 1006.7 |
| 20260507085014 | 67 | 25 | 0.9 | 0.9 | 0.00 | 0.11 | 0.11 | 97 | 1006.9 |
| 20260507084510 | 67 | 12 | 0.9 | 1.7 | 0.00 | 0.11 | 0.11 | 97 | 1006.8 |
| 20260507084008 | 67 | 16 | 1.7 | 1.7 | 0.00 | 0.11 | 0.11 | 97 | 1006.8 |
| 20260507083504 | 67 | 21 | 0.9 | 1.7 | 0.07 | 0.11 | 0.11 | 97 | 1006.5 |
| 20260507083001 | 67 | 328 | 2.6 | 2.6 | 0.00 | 0.10 | 0.10 | 97 | 1006.7 |
| 20260507082457 | 67 | 15 | 0.9 | 1.7 | 0.00 | 0.10 | 0.10 | 97 | 1006.4 |
| 20260507081953 | 67 | 8 | 0.9 | 1.7 | 0.00 | 0.10 | 0.10 | 97 | 1006.5 |
| 20260507081449 | 67 | 12 | 1.7 | 1.7 | 0.00 | 0.10 | 0.10 | 97 | 1006.4 |
| 20260507080947 | 67 | 353 | 1.7 | 1.7 | 0.00 | 0.10 | 0.10 | 97 | 1006.3 |
| 20260507080443 | 67 | 16 | 0.9 | 0.9 | 0.00 | 0.10 | 0.10 | 97 | 1006.2 |
| 20260507075938 | 67 | 351 | 1.7 | 1.7 | 0.00 | 0.10 | 0.10 | 97 | 1006.4 |
| 20260507075435 | 67 | 33 | 0.0 | 1.7 | 0.00 | 0.10 | 0.10 | 97 | 1006.4 |
| 20260507074931 | 67 | 32 | 0.9 | 1.7 | 0.00 | 0.10 | 0.10 | 97 | 1006.6 |
| 20260507074428 | 67 | 339 | 1.7 | 2.6 | 0.00 | 0.10 | 0.10 | 97 | 1006.5 |
| 20260507073926 | 66 | 9 | 0.9 | 1.7 | 0.00 | 0.10 | 0.10 | 97 | 1006.6 |
| 20260507073422 | 67 | 35 | 0.0 | 2.6 | 0.00 | 0.10 | 0.10 | 97 | 1006.6 |
| 20260507072919 | 66 | 43 | 0.0 | 0.9 | 0.00 | 0.10 | 0.10 | 97 | 1006.6 |
| 20260507072416 | 66 | 32 | 0.0 | 0.9 | 0.00 | 0.10 | 0.10 | 97 | 1006.6 |
| 20260507071914 | 66 | 33 | 0.0 | 0.0 | 0.00 | 0.10 | 0.10 | 97 | 1006.4 |
| 20260507071411 | 66 | 34 | 0.0 | 0.0 | 0.00 | 0.10 | 0.10 | 97 | 1006.5 |
| 20260507070907 | 66 | 34 | 0.0 | 0.0 | 0.00 | 0.10 | 0.10 | 97 | 1006.7 |
| 20260507070405 | 67 | 34 | 0.0 | 0.0 | 0.00 | 0.10 | 0.10 | 97 | 1006.6 |
| 20260507065901 | 67 | 34 | 0.0 | 0.0 | 0.00 | 0.10 | 0.10 | 97 | 1006.6 |
| 20260507065358 | 67 | 34 | 0.0 | 0.0 | 0.00 | 0.10 | 0.10 | 97 | 1006.7 |
| 20260507064855 | 67 | 17 | 0.9 | 0.9 | 0.00 | 0.10 | 0.10 | 97 | 1006.8 |
| 20260507064353 | 67 | 24 | 0.9 | 0.9 | 0.00 | 0.10 | 0.10 | 97 | 1006.8 |
| 20260507063851 | 67 | 18 | 0.9 | 1.7 | 0.00 | 0.10 | 0.10 | 97 | 1007.1 |
| 20260507063348 | 67 | 28 | 0.0 | 0.0 | 0.00 | 0.10 | 0.10 | 97 | 1006.9 |
| 20260507062844 | 67 | 22 | 0.9 | 0.9 | 0.00 | 0.10 | 0.10 | 97 | 1006.8 |
| 20260507062341 | 67 | 40 | 0.0 | 0.0 | 0.00 | 0.10 | 0.10 | 97 | 1006.7 |
| 20260507061839 | 67 | 41 | 0.0 | 0.0 | 0.00 | 0.10 | 0.10 | 97 | 1006.7 |
| 20260507061337 | 67 | 41 | 0.0 | 0.0 | 0.00 | 0.10 | 0.10 | 97 | 1006.8 |
| 20260507060835 | 67 | 41 | 0.0 | 0.0 | 0.00 | 0.10 | 0.10 | 97 | 1006.7 |
| 20260507060332 | 67 | 41 | 0.0 | 0.0 | 0.00 | 0.10 | 0.10 | 97 | 1006.8 |
| 20260507055828 | 67 | 41 | 0.0 | 0.0 | 0.00 | 0.10 | 0.10 | 96 | 1006.6 |
| 20260507055323 | 67 | 41 | 0.0 | 0.0 | 0.00 | 0.10 | 0.10 | 96 | 1006.4 |
| 20260507054820 | 67 | 41 | 0.0 | 0.0 | 0.00 | 0.10 | 0.10 | 96 | 1006.7 |
| 20260507054316 | 67 | 41 | 0.0 | 0.0 | 0.00 | 0.10 | 0.10 | 96 | 1006.8 |
| 20260507053814 | 67 | 41 | 0.0 | 0.0 | 0.00 | 0.10 | 0.10 | 96 | 1006.8 |
| 20260507053312 | 67 | 43 | 0.0 | 0.0 | 0.00 | 0.10 | 0.10 | 96 | 1006.8 |
| 20260507052811 | 67 | 44 | 0.0 | 0.9 | 0.00 | 0.10 | 0.10 | 96 | 1006.6 |
| 20260507052307 | 67 | 42 | 0.0 | 0.9 | 0.00 | 0.10 | 0.10 | 96 | 1006.9 |
| 20260507051805 | 67 | 76 | 0.0 | 1.7 | 0.00 | 0.10 | 0.10 | 96 | 1006.8 |
| 20260507051302 | 67 | 54 | 0.0 | 0.9 | 0.00 | 0.10 | 0.10 | 96 | 1006.7 |
| 20260507050759 | 68 | 61 | 0.0 | 0.9 | 0.00 | 0.10 | 0.10 | 96 | 1007.0 |
| 20260507050255 | 68 | 61 | 0.0 | 0.9 | 0.00 | 0.10 | 0.10 | 96 | 1007.2 |
| 20260507045752 | 68 | 61 | 0.0 | 0.9 | 0.00 | 0.10 | 0.10 | 95 | 1007.5 |
| 20260507045249 | 68 | 61 | 0.0 | 0.9 | 0.00 | 0.10 | 0.10 | 95 | 1007.1 |
| 20260507044746 | 68 | 61 | 0.0 | 0.9 | 0.00 | 0.10 | 0.10 | 95 | 1007.3 |
| 20260507044242 | 68 | 61 | 0.0 | 0.9 | 0.00 | 0.10 | 0.10 | 95 | 1007.3 |
| 20260507043738 | 68 | 61 | 0.0 | 1.7 | 0.00 | 0.10 | 0.10 | 95 | 1007.5 |
| 20260507043235 | 68 | 61 | 0.9 | 0.9 | 0.00 | 0.10 | 0.10 | 95 | 1007.5 |
| 20260507042731 | 68 | 62 | 0.9 | 1.7 | 0.00 | 0.10 | 0.10 | 94 | 1007.5 |
| 20260507042226 | 68 | 68 | 0.9 | 1.7 | 0.12 | 0.10 | 0.10 | 94 | 1007.9 |
| 20260507041724 | 68 | 79 | 0.9 | 1.7 | 0.17 | 0.10 | 0.10 | 94 | 1008.1 |
| 20260507041220 | 68 | 52 | 0.0 | 0.0 | 0.40 | 0.08 | 0.08 | 94 | 1008.3 |
| 20260507040717 | 68 | 53 | 0.0 | 0.0 | 0.54 | 0.07 | 0.07 | 93 | 1008.5 |
| 20260507040213 | 68 | 58 | 0.0 | 0.0 | 0.31 | 0.01 | 0.01 | 93 | 1008.7 |
| 20260507035709 | 68 | 58 | 0.0 | 0.0 | 0.19 | 0.56 | 0.56 | 93 | 1008.5 |
| 20260507035205 | 68 | 59 | 0.9 | 0.9 | 0.12 | 0.54 | 0.54 | 93 | 1008.5 |
| 20260507034702 | 68 | 56 | 0.0 | 0.0 | 0.17 | 0.53 | 0.53 | 92 | 1008.7 |
| 20260507034200 | 68 | 56 | 0.0 | 0.0 | 0.19 | 0.52 | 0.52 | 92 | 1009.2 |
| 20260507033658 | 68 | 58 | 0.0 | 0.9 | 0.12 | 0.50 | 0.50 | 92 | 1008.9 |
| 20260507033155 | 68 | 57 | 0.0 | 0.0 | 0.17 | 0.49 | 0.49 | 91 | 1008.9 |
| 20260507032652 | 69 | 57 | 0.0 | 0.9 | 0.24 | 0.48 | 0.48 | 91 | 1008.8 |
| 20260507032148 | 69 | 56 | 0.0 | 0.0 | 0.26 | 0.46 | 0.46 | 91 | 1009.2 |
| 20260507031645 | 69 | 55 | 0.0 | 0.0 | 0.19 | 0.44 | 0.44 | 91 | 1009.4 |
| 20260507031141 | 69 | 58 | 0.0 | 0.9 | 0.24 | 0.42 | 0.42 | 90 | 1009.6 |
| 20260507030638 | 69 | 37 | 0.0 | 0.0 | 0.35 | 0.41 | 0.41 | 90 | 1010.3 |
| 20260507030136 | 69 | 355 | 1.7 | 1.7 | 0.28 | 0.38 | 0.38 | 90 | 1010.5 |
| 20260507025633 | 69 | 33 | 0.0 | 0.0 | 0.38 | 0.35 | 0.35 | 90 | 1010.5 |
| 20260507025130 | 69 | 40 | 0.0 | 0.0 | 0.31 | 0.33 | 0.33 | 89 | 1009.8 |
| 20260507024628 | 69 | 33 | 0.0 | 1.7 | 0.24 | 0.29 | 0.29 | 88 | 1010.2 |
| 20260507024125 | 69 | 44 | 0.0 | 1.7 | 0.31 | 0.28 | 0.28 | 88 | 1010.1 |
| 20260507023620 | 69 | 285 | 3.5 | 6.1 | 0.35 | 0.25 | 0.25 | 86 | 1010.1 |
| 20260507023118 | 69 | 291 | 5.2 | 7.0 | 1.02 | 0.23 | 0.23 | 84 | 1010.0 |
| 20260507022615 | 71 | 257 | 7.0 | 8.7 | 0.97 | 0.19 | 0.19 | 82 | 1010.1 |
| 20260507022110 | 73 | 338 | 2.6 | 8.7 | 0.31 | 0.06 | 0.06 | 77 | 1010.0 |
| 20260507021607 | 74 | 298 | 4.3 | 4.3 | 0.17 | 0.03 | 0.03 | 72 | 1008.7 |
| 20260507021103 | 77 | 25 | 0.9 | 0.9 | 0.05 | 0.01 | 0.01 | 66 | 1007.6 |
| 20260507020601 | 79 | 24 | 0.9 | 0.9 | 0.00 | 0.00 | 0.00 | 58 | 1007.4 |
| 20260507020057 | 80 | 21 | 0.0 | 0.9 | 0.00 | 0.00 | 0.00 | 56 | 1007.1 |
| 20260507015556 | 80 | 10 | 0.9 | 0.9 | 0.00 | 0.00 | 0.00 | 54 | 1007.1 |
| 20260507015053 | 80 | 14 | 0.9 | 0.9 | 0.00 | 0.00 | 0.00 | 54 | 1007.1 |
| 20260507014549 | 80 | 11 | 0.9 | 0.9 | 0.00 | 0.00 | 0.00 | 53 | 1007.0 |
| 20260507014045 | 80 | 11 | 0.9 | 1.7 | 0.00 | 0.00 | 0.00 | 54 | 1007.0 |
| 20260507013542 | 80 | 30 | 0.0 | 0.9 | 0.00 | 0.00 | 0.00 | 53 | 1006.6 |
| 20260507013039 | 80 | 28 | 0.9 | 1.7 | 0.00 | 0.00 | 0.00 | 54 | 1006.7 |
| 20260507012536 | 80 | 29 | 0.9 | 0.9 | 0.00 | 0.00 | 0.00 | 53 | 1006.5 |
| 20260507012032 | 80 | 30 | 0.0 | 0.0 | 0.00 | 0.00 | 0.00 | 53 | 1006.5 |
| 20260507011530 | 80 | 30 | 0.0 | 0.9 | 0.00 | 0.00 | 0.00 | 53 | 1006.4 |
| 20260507011026 | 80 | 30 | 0.0 | 0.9 | 0.00 | 0.00 | 0.00 | 53 | 1006.6 |
| 20260507010520 | 81 | 45 | 0.9 | 1.7 | 0.00 | 0.00 | 0.00 | 53 | 1006.5 |
| 20260507010017 | 81 | 47 | 0.9 | 1.7 | 0.00 | 0.00 | 0.00 | 53 | 1006.2 |
| 20260507005515 | 81 | 44 | 0.9 | 0.9 | 0.00 | 0.00 | 0.00 | 52 | 1006.2 |
| 20260507005011 | 81 | 45 | 0.0 | 0.9 | 0.00 | 0.00 | 0.00 | 52 | 1006.4 |
| 20260507004508 | 81 | 48 | 0.0 | 0.9 | 0.00 | 0.00 | 0.00 | 52 | 1006.4 |
| 20260507004006 | 81 | 49 | 0.9 | 0.9 | 0.00 | 0.00 | 0.00 | 52 | 1006.5 |
| 20260507003501 | 81 | 38 | 0.0 | 0.9 | 0.00 | 0.00 | 0.00 | 51 | 1006.5 |
| 20260507002955 | 81 | 26 | 0.0 | 0.0 | 0.00 | 0.00 | 0.00 | 52 | 1006.6 |
| 20260507002453 | 82 | 21 | 0.0 | 0.9 | 0.00 | 0.00 | 0.00 | 51 | 1006.6 |
| 20260507001949 | 82 | 23 | 0.9 | 0.9 | 0.00 | 0.00 | 0.00 | 51 | 1006.8 |
| 20260507001446 | 82 | 33 | 0.9 | 0.9 | 0.00 | 0.00 | 0.00 | 50 | 1006.7 |
| 20260507000943 | 82 | 33 | 0.9 | 1.7 | 0.00 | 0.00 | 0.00 | 50 | 1006.8 |
| 20260507000439 | 82 | 16 | 0.9 | 1.7 | 0.00 | 0.00 | 0.00 | 50 | 1006.5 |
| 20260506235934 | 83 | 47 | 0.9 | 1.7 | 0.00 | 0.00 | 0.00 | 49 | 1006.5 |
| 20260506235432 | 83 | 59 | 0.0 | 0.9 | 0.00 | 0.00 | 0.00 | 49 | 1006.4 |
| 20260506234927 | 83 | 40 | 0.0 | 0.9 | 0.00 | 0.00 | 0.00 | 49 | 1006.5 |
| 20260506234426 | 83 | 30 | 0.9 | 1.7 | 0.00 | 0.00 | 0.00 | 50 | 1006.6 |
| 20260506233923 | 83 | 53 | 0.0 | 0.9 | 0.00 | 0.00 | 0.00 | 48 | 1006.4 |
| 20260506233419 | 84 | 334 | 0.9 | 2.6 | 0.00 | 0.00 | 0.00 | 48 | 1006.7 |
| 20260506232916 | 84 | 21 | 1.7 | 1.7 | 0.00 | 0.00 | 0.00 | 48 | 1006.7 |
| 20260506232412 | 84 | 288 | 2.6 | 4.3 | 0.00 | 0.00 | 0.00 | 47 | 1006.9 |
| 20260506231908 | 84 | 310 | 3.5 | 4.3 | 0.00 | 0.00 | 0.00 | 48 | 1006.8 |
| 20260506231406 | 85 | 295 | 2.6 | 4.3 | 0.00 | 0.00 | 0.00 | 47 | 1006.6 |
| 20260506230903 | 85 | 7 | 1.7 | 2.6 | 0.00 | 0.00 | 0.00 | 47 | 1006.7 |
| 20260506230400 | 85 | 117 | 1.7 | 1.7 | 0.00 | 0.00 | 0.00 | 46 | 1006.5 |
| 20260506225856 | 85 | 277 | 4.3 | 5.2 | 0.00 | 0.00 | 0.00 | 46 | 1006.4 |
| 20260506225353 | 85 | 269 | 2.6 | 4.3 | 0.00 | 0.00 | 0.00 | 46 | 1006.6 |
| 20260506224850 | 85 | 337 | 2.6 | 5.2 | 0.00 | 0.00 | 0.00 | 46 | 1006.4 |
| 20260506224348 | 85 | 301 | 4.3 | 7.0 | 0.00 | 0.00 | 0.00 | 46 | 1006.8 |
| 20260506223844 | 85 | 323 | 2.6 | 2.6 | 0.00 | 0.00 | 0.00 | 46 | 1006.5 |
| 20260506223339 | 85 | 314 | 5.2 | 7.0 | 0.00 | 0.00 | 0.00 | 46 | 1006.6 |
| 20260506222836 | 85 | 312 | 3.5 | 4.3 | 0.00 | 0.00 | 0.00 | 46 | 1006.6 |
| 20260506222331 | 86 | 305 | 4.3 | 7.0 | 0.00 | 0.00 | 0.00 | 46 | 1006.6 |
| 20260506221830 | 85 | 251 | 3.5 | 4.3 | 0.00 | 0.00 | 0.00 | 47 | 1006.7 |
| 20260506221327 | 85 | 295 | 3.5 | 5.2 | 0.00 | 0.00 | 0.00 | 45 | 1006.7 |
| 20260506220825 | 85 | 321 | 2.6 | 4.3 | 0.00 | 0.00 | 0.00 | 46 | 1006.8 |
| 20260506220320 | 85 | 343 | 2.6 | 4.3 | 0.00 | 0.00 | 0.00 | 47 | 1006.9 |
| 20260506215817 | 84 | 296 | 2.6 | 2.6 | 0.00 | 0.00 | 0.00 | 47 | 1006.8 |
| 20260506215312 | 84 | 300 | 2.6 | 5.2 | 0.00 | 0.00 | 0.00 | 47 | 1006.9 |
| 20260506214808 | 84 | 248 | 5.2 | 5.2 | 0.00 | 0.00 | 0.00 | 47 | 1007.0 |
| 20260506214305 | 85 | 286 | 4.3 | 7.8 | 0.00 | 0.00 | 0.00 | 46 | 1006.7 |
| 20260506213804 | 85 | 268 | 7.0 | 12.2 | 0.00 | 0.00 | 0.00 | 46 | 1007.0 |
| 20260506213300 | 84 | 285 | 5.2 | 6.1 | 0.00 | 0.00 | 0.00 | 47 | 1006.9 |
| 20260506212758 | 85 | 290 | 5.2 | 7.8 | 0.00 | 0.00 | 0.00 | 47 | 1006.9 |
| 20260506212253 | 85 | 265 | 6.1 | 7.0 | 0.00 | 0.00 | 0.00 | 46 | 1007.2 |
| 20260506211748 | 85 | 224 | 4.3 | 6.1 | 0.00 | 0.00 | 0.00 | 44 | 1007.1 |
| 20260506211245 | 85 | 289 | 3.5 | 8.7 | 0.00 | 0.00 | 0.00 | 46 | 1006.9 |
| 20260506210742 | 85 | 277 | 6.1 | 7.0 | 0.00 | 0.00 | 0.00 | 45 | 1007.2 |
| 20260506210239 | 85 | 282 | 6.1 | 9.6 | 0.00 | 0.00 | 0.00 | 46 | 1007.3 |
| 20260506205736 | 85 | 305 | 5.2 | 7.0 | 0.00 | 0.00 | 0.00 | 45 | 1007.1 |
| 20260506205232 | 84 | 278 | 6.1 | 15.6 | 0.00 | 0.00 | 0.00 | 46 | 1007.1 |
| 20260506204729 | 85 | 271 | 10.4 | 13.9 | 0.00 | 0.00 | 0.00 | 46 | 1007.3 |
| 20260506204226 | 86 | 306 | 6.1 | 8.7 | 0.00 | 0.00 | 0.00 | 47 | 1007.2 |
| 20260506203724 | 85 | 33 | 2.6 | 2.6 | 0.00 | 0.00 | 0.00 | 47 | 1007.1 |
| 20260506203221 | 85 | 344 | 2.6 | 6.1 | 0.00 | 0.00 | 0.00 | 48 | 1007.1 |
| 20260506202719 | 85 | 307 | 3.5 | 6.1 | 0.00 | 0.00 | 0.00 | 49 | 1007.6 |
| 20260506202215 | 84 | 275 | 3.5 | 5.2 | 0.00 | 0.00 | 0.00 | 50 | 1007.4 |
| 20260506201712 | 83 | 301 | 3.5 | 6.1 | 0.00 | 0.00 | 0.00 | 50 | 1007.8 |
| 20260506201209 | 84 | 26 | 3.5 | 7.8 | 0.00 | 0.00 | 0.00 | 51 | 1007.9 |
| 20260506200706 | 84 | 56 | 0.9 | 1.7 | 0.00 | 0.00 | 0.00 | 49 | 1007.8 |
| 20260506200203 | 84 | 293 | 3.5 | 12.2 | 0.00 | 0.00 | 0.00 | 50 | 1007.7 |
| 20260506195659 | 83 | 277 | 4.3 | 7.0 | 0.00 | 0.00 | 0.00 | 50 | 1007.7 |
| 20260506195155 | 83 | 272 | 2.6 | 9.6 | 0.00 | 0.00 | 0.00 | 50 | 1007.8 |
| 20260506194653 | 83 | 140 | 2.6 | 5.2 | 0.00 | 0.00 | 0.00 | 48 | 1007.9 |
| 20260506194149 | 83 | 287 | 4.3 | 7.0 | 0.00 | 0.00 | 0.00 | 50 | 1008.3 |
| 20260506193647 | 82 | 289 | 4.3 | 6.1 | 0.00 | 0.00 | 0.00 | 49 | 1008.5 |
| 20260506193143 | 82 | 291 | 3.5 | 7.0 | 0.00 | 0.00 | 0.00 | 50 | 1008.7 |
| 20260506192640 | 81 | 284 | 4.3 | 7.0 | 0.00 | 0.00 | 0.00 | 50 | 1009.0 |
| 20260506192136 | 82 | 274 | 7.0 | 8.7 | 0.00 | 0.00 | 0.00 | 50 | 1008.6 |
| 20260506191633 | 82 | 34 | 1.7 | 5.2 | 0.00 | 0.00 | 0.00 | 50 | 1008.6 |
| 20260506191129 | 81 | 297 | 4.3 | 6.1 | 0.00 | 0.00 | 0.00 | 49 | 1008.7 |
| 20260506190627 | 81 | 291 | 2.6 | 5.2 | 0.00 | 0.00 | 0.00 | 50 | 1008.7 |
| 20260506190123 | 80 | 314 | 2.6 | 6.1 | 0.00 | 0.00 | 0.00 | 52 | 1009.1 |
| 20260506185621 | 80 | 286 | 5.2 | 7.0 | 0.00 | 0.00 | 0.00 | 50 | 1009.1 |
| 20260506185117 | 80 | 280 | 3.5 | 6.1 | 0.00 | 0.00 | 0.00 | 52 | 1009.0 |
| 20260506184614 | 80 | 334 | 2.6 | 5.2 | 0.00 | 0.00 | 0.00 | 51 | 1008.9 |
| 20260506184111 | 79 | 262 | 4.3 | 7.8 | 0.00 | 0.00 | 0.00 | 54 | 1009.0 |
| 20260506183608 | 79 | 298 | 4.3 | 7.8 | 0.00 | 0.00 | 0.00 | 52 | 1008.9 |
| 20260506183104 | 79 | 308 | 3.5 | 4.3 | 0.00 | 0.00 | 0.00 | 52 | 1009.1 |
| 20260506182602 | 80 | 333 | 2.6 | 7.0 | 0.00 | 0.00 | 0.00 | 52 | 1009.0 |
| 20260506182058 | 78 | 296 | 2.6 | 2.6 | 0.00 | 0.00 | 0.00 | 55 | 1009.3 |
| 20260506181556 | 77 | 279 | 2.6 | 5.2 | 0.00 | 0.00 | 0.00 | 58 | 1009.7 |
| 20260506181053 | 77 | 279 | 4.3 | 6.1 | 0.00 | 0.00 | 0.00 | 58 | 1009.8 |
| 20260506180550 | 77 | 237 | 3.5 | 6.1 | 0.00 | 0.00 | 0.00 | 63 | 1010.1 |
| 20260506180047 | 76 | 12 | 0.9 | 2.6 | 0.00 | 0.00 | 0.00 | 64 | 1010.1 |
| 20260506175543 | 76 | 304 | 4.3 | 5.2 | 0.00 | 0.00 | 0.00 | 64 | 1010.1 |
| 20260506175039 | 76 | 4 | 0.9 | 2.6 | 0.00 | 0.00 | 0.00 | 65 | 1010.1 |
| 20260506174538 | 75 | 321 | 2.6 | 4.3 | 0.00 | 0.00 | 0.00 | 65 | 1010.2 |
| 20260506174033 | 75 | 312 | 3.5 | 5.2 | 0.00 | 0.00 | 0.00 | 67 | 1010.5 |
| 20260506173532 | 75 | 263 | 3.5 | 5.2 | 0.00 | 0.00 | 0.00 | 65 | 1010.9 |
| 20260506173028 | 75 | 281 | 4.3 | 5.2 | 0.00 | 0.00 | 0.00 | 64 | 1010.8 |
| 20260506172526 | 75 | 270 | 5.2 | 7.0 | 0.00 | 0.00 | 0.00 | 68 | 1010.9 |
| 20260506172022 | 75 | 246 | 5.2 | 9.6 | 0.00 | 0.00 | 0.00 | 65 | 1010.9 |
| 20260506171519 | 75 | 278 | 4.3 | 5.2 | 0.00 | 0.00 | 0.00 | 66 | 1010.8 |
| 20260506171017 | 74 | 102 | 2.6 | 5.2 | 0.00 | 0.00 | 0.00 | 67 | 1011.0 |
| 20260506170514 | 74 | 337 | 2.6 | 5.2 | 0.00 | 0.00 | 0.00 | 67 | 1010.7 |
| 20260506170006 | 73 | 27 | 1.7 | 4.3 | 0.00 | 0.00 | 0.00 | 68 | 1010.7 |
| 20260506165504 | 73 | 315 | 3.5 | 5.2 | 0.00 | 0.00 | 0.00 | 69 | 1011.0 |
| 20260506165000 | 73 | 264 | 3.5 | 5.2 | 0.00 | 0.00 | 0.00 | 69 | 1011.1 |
| 20260506164456 | 73 | 243 | 5.2 | 6.1 | 0.00 | 0.00 | 0.00 | 70 | 1011.4 |
| 20260506163954 | 73 | 312 | 3.5 | 6.1 | 0.00 | 0.00 | 0.00 | 70 | 1011.5 |
| 20260506163449 | 73 | 297 | 3.5 | 4.3 | 0.00 | 0.00 | 0.00 | 70 | 1011.7 |
| 20260506162944 | 72 | 299 | 2.6 | 5.2 | 0.00 | 0.00 | 0.00 | 70 | 1011.5 |
| 20260506162442 | 72 | 268 | 3.5 | 5.2 | 0.00 | 0.00 | 0.00 | 70 | 1011.5 |
| 20260506161934 | 72 | 261 | 5.2 | 9.6 | 0.00 | 0.00 | 0.00 | 70 | 1011.7 |
| 20260506161432 | 72 | 257 | 5.2 | 7.8 | 0.00 | 0.00 | 0.00 | 70 | 1011.8 |
| 20260506160929 | 72 | 271 | 2.6 | 4.3 | 0.00 | 0.00 | 0.00 | 70 | 1011.5 |
| 20260506160426 | 72 | 266 | 3.5 | 7.0 | 0.00 | 0.00 | 0.00 | 69 | 1011.7 |
| 20260506155923 | 72 | 276 | 4.3 | 6.1 | 0.00 | 0.00 | 0.00 | 70 | 1011.8 |
| 20260506155420 | 72 | 255 | 4.3 | 5.2 | 0.00 | 0.00 | 0.00 | 70 | 1011.4 |
| 20260506153542 | 72 | 284 | 3.5 | 5.2 | 0.00 | 0.00 | 0.00 | 70 | 1011.2 |
| 20260506153040 | 72 | 277 | 5.2 | 7.8 | 0.00 | 0.00 | 0.00 | 71 | 1011.3 |
| 20260506152537 | 72 | 302 | 3.5 | 6.1 | 0.00 | 0.00 | 0.00 | 70 | 1011.2 |
| 20260506152035 | 71 | 275 | 3.5 | 5.2 | 0.00 | 0.00 | 0.00 | 71 | 1011.2 |
| 20260506151532 | 71 | 294 | 4.3 | 6.1 | 0.00 | 0.00 | 0.00 | 72 | 1011.1 |
| 20260506151029 | 71 | 293 | 2.6 | 5.2 | 0.00 | 0.00 | 0.00 | 72 | 1011.1 |
| 20260506150526 | 71 | 263 | 3.5 | 4.3 | 0.00 | 0.00 | 0.00 | 72 | 1011.1 |
| 20260506150023 | 71 | 302 | 3.5 | 4.3 | 0.00 | 0.00 | 0.00 | 72 | 1011.1 |
| 20260506145519 | 70 | 271 | 2.6 | 4.3 | 0.00 | 0.00 | 0.00 | 73 | 1010.9 |
| 20260506145017 | 70 | 303 | 3.5 | 4.3 | 0.00 | 0.00 | 0.00 | 73 | 1010.9 |
| 20260506144513 | 70 | 273 | 2.6 | 6.1 | 0.00 | 0.00 | 0.00 | 73 | 1010.9 |
| 20260506144011 | 70 | 309 | 2.6 | 4.3 | 0.00 | 0.00 | 0.00 | 72 | 1011.0 |
| 20260506143508 | 70 | 337 | 1.7 | 2.6 | 0.00 | 0.00 | 0.00 | 73 | 1011.0 |
| 20260506143007 | 69 | 301 | 3.5 | 5.2 | 0.00 | 0.00 | 0.00 | 73 | 1010.9 |
| 20260506142504 | 69 | 317 | 1.7 | 6.1 | 0.00 | 0.00 | 0.00 | 73 | 1011.1 |
| 20260506142002 | 69 | 306 | 2.6 | 6.1 | 0.00 | 0.00 | 0.00 | 74 | 1011.2 |
| 20260506141459 | 69 | 304 | 3.5 | 5.2 | 0.00 | 0.00 | 0.00 | 74 | 1011.0 |
| 20260506140958 | 68 | 300 | 3.5 | 4.3 | 0.00 | 0.00 | 0.00 | 73 | 1011.1 |
| 20260506140454 | 68 | 298 | 5.2 | 6.1 | 0.00 | 0.00 | 0.00 | 74 | 1011.1 |
| 20260506135951 | 68 | 330 | 2.6 | 5.2 | 0.00 | 0.00 | 0.00 | 74 | 1011.2 |
| 20260506135449 | 68 | 316 | 2.6 | 4.3 | 0.00 | 0.00 | 0.00 | 75 | 1011.2 |
| 20260506134944 | 68 | 349 | 1.7 | 4.3 | 0.00 | 0.00 | 0.00 | 74 | 1011.3 |
| 20260506134440 | 68 | 310 | 3.5 | 4.3 | 0.00 | 0.00 | 0.00 | 74 | 1011.2 |
| 20260506133938 | 67 | 301 | 4.3 | 4.3 | 0.00 | 0.00 | 0.00 | 75 | 1011.2 |
| 20260506133435 | 67 | 317 | 3.5 | 4.3 | 0.00 | 0.00 | 0.00 | 75 | 1011.2 |
| 20260506132931 | 67 | 318 | 2.6 | 4.3 | 0.00 | 0.00 | 0.00 | 75 | 1011.3 |
| 20260506132429 | 67 | 268 | 2.6 | 4.3 | 0.00 | 0.00 | 0.00 | 75 | 1011.3 |
| 20260506131926 | 67 | 294 | 2.6 | 4.3 | 0.00 | 0.00 | 0.00 | 75 | 1010.8 |
| 20260506131422 | 67 | 324 | 2.6 | 5.2 | 0.00 | 0.00 | 0.00 | 75 | 1011.0 |
| 20260506130920 | 66 | 335 | 2.6 | 5.2 | 0.00 | 0.00 | 0.00 | 76 | 1011.0 |
| 20260506130416 | 66 | 356 | 2.6 | 2.6 | 0.00 | 0.00 | 0.00 | 76 | 1010.8 |
| 20260506125914 | 66 | 45 | 0.9 | 1.7 | 0.00 | 0.00 | 0.00 | 76 | 1010.8 |
| 20260506125412 | 66 | 30 | 0.9 | 0.9 | 0.00 | 0.00 | 0.00 | 76 | 1011.0 |
| 20260506124910 | 65 | 359 | 1.7 | 1.7 | 0.00 | 0.00 | 0.00 | 76 | 1011.1 |
| 20260506124407 | 65 | 19 | 0.9 | 0.9 | 0.00 | 0.00 | 0.00 | 76 | 1011.1 |
| 20260506123905 | 65 | 29 | 0.0 | 0.9 | 0.00 | 0.00 | 0.00 | 77 | 1010.9 |
| 20260506123403 | 64 | 29 | 0.0 | 0.0 | 0.00 | 0.00 | 0.00 | 77 | 1011.0 |
| 20260506122900 | 64 | 31 | 0.0 | 0.9 | 0.00 | 0.00 | 0.00 | 77 | 1011.1 |
| 20260506122356 | 64 | 32 | 0.0 | 0.0 | 0.00 | 0.00 | 0.00 | 77 | 1011.1 |
| 20260506121855 | 64 | 29 | 0.9 | 1.7 | 0.00 | 0.00 | 0.00 | 77 | 1011.0 |
| 20260506121351 | 64 | 41 | 0.0 | 0.0 | 0.00 | 0.00 | 0.00 | 78 | 1010.8 |
| 20260506120848 | 63 | 41 | 0.0 | 0.0 | 0.00 | 0.00 | 0.00 | 78 | 1011.0 |
| 20260506120346 | 63 | 45 | 0.0 | 0.9 | 0.00 | 0.00 | 0.00 | 78 | 1010.9 |
| 20260506115843 | 63 | 51 | 0.0 | 0.0 | 0.00 | 0.00 | 0.00 | 78 | 1010.7 |
| 20260506115341 | 63 | 51 | 0.0 | 0.0 | 0.00 | 0.00 | 0.00 | 78 | 1010.8 |
| 20260506114839 | 63 | 51 | 0.0 | 0.0 | 0.00 | 0.00 | 0.00 | 78 | 1010.7 |
| 20260506114336 | 63 | 51 | 0.0 | 0.9 | 0.00 | 0.00 | 0.00 | 78 | 1010.5 |
| 20260506113835 | 63 | 51 | 0.0 | 0.9 | 0.00 | 0.00 | 0.00 | 78 | 1010.7 |
| 20260506113332 | 63 | 49 | 0.9 | 0.9 | 0.00 | 0.00 | 0.00 | 78 | 1010.6 |
| 20260506112829 | 63 | 45 | 0.0 | 0.0 | 0.00 | 0.00 | 0.00 | 78 | 1010.5 |
| 20260506112326 | 63 | 35 | 0.9 | 0.9 | 0.00 | 0.00 | 0.00 | 77 | 1010.3 |
| 20260506111823 | 63 | 44 | 0.0 | 0.9 | 0.00 | 0.00 | 0.00 | 77 | 1009.9 |
| 20260506111322 | 63 | 43 | 0.0 | 0.9 | 0.00 | 0.00 | 0.00 | 77 | 1009.8 |
| 20260506110819 | 63 | 84 | 0.9 | 1.7 | 0.00 | 0.00 | 0.00 | 77 | 1009.5 |
| 20260506110315 | 62 | 45 | 0.0 | 1.7 | 0.00 | 0.00 | 0.00 | 77 | 1009.6 |
| 20260506105812 | 63 | 35 | 0.0 | 0.9 | 0.00 | 0.00 | 0.00 | 77 | 1009.6 |
| 20260506105309 | 63 | 52 | 0.0 | 0.9 | 0.00 | 0.00 | 0.00 | 77 | 1009.5 |
| 20260506104807 | 63 | 60 | 0.0 | 0.9 | 0.00 | 0.00 | 0.00 | 77 | 1009.6 |
| 20260506104304 | 63 | 52 | 0.0 | 1.7 | 0.00 | 0.00 | 0.00 | 77 | 1009.9 |
| 20260506103801 | 62 | 43 | 0.0 | 0.9 | 0.00 | 0.00 | 0.00 | 77 | 1009.8 |
| 20260506103259 | 62 | 26 | 1.7 | 1.7 | 0.00 | 0.00 | 0.00 | 77 | 1009.5 |
| 20260506102756 | 62 | 31 | 0.0 | 0.9 | 0.00 | 0.00 | 0.00 | 77 | 1009.7 |
| 20260506102254 | 62 | 53 | 0.0 | 0.9 | 0.00 | 0.00 | 0.00 | 77 | 1009.5 |